DW5479 Weather Reports


Display with metric or nautical units.
time (UTC)temp
F
wind
direction
speed
MPH
gust
MPH
rain 1hr
in
rain 24hr
in
rain mn
in
humidity
%
barometer
mb
20260507124530 61 160 5.0 15.0 0.00 0.00 0.00 83 1015.0
20260507123039 61 201 5.0 14.0 0.00 0.00 0.00 83 1014.7
20260507121502 61 185 6.0 16.0 0.00 0.00 0.00 82 1014.8
20260507120034 62 165 5.0 10.0 0.00 0.00 0.00 82 1014.7
20260507114600 62 168 5.0 11.0 0.00 0.00 0.00 82 1013.8
20260507113104 62 177 4.0 10.0 0.00 0.00 0.00 82 1013.4
20260507111529 62 181 3.0 12.0 0.00 0.00 0.00 82 1013.5
20260507110045 62 147 4.0 11.0 0.00 0.00 0.00 82 1013.5
20260507104559 62 213 5.0 13.0 0.00 0.00 0.00 82 1013.0
20260507103012 62 162 4.0 10.0 0.00 0.00 0.00 82 1013.0
20260507101552 62 120 4.0 11.0 0.00 0.00 0.00 82 1013.1
20260507100024 62 131 3.0 9.0 0.00 0.00 0.00 82 1013.1
20260507094600 62 191 4.0 11.0 0.00 0.00 0.00 82 1012.9
20260507093022 62 311 4.0 12.0 0.00 0.00 0.00 81 1012.9
20260507091538 62 164 6.0 13.0 0.00 0.00 0.00 81 1013.1
20260507090105 62 177 4.0 9.0 0.00 0.00 0.00 82 1013.1
20260507084522 62 143 5.0 10.0 0.00 0.00 0.00 82 1013.0
20260507083039 63 133 4.0 8.0 0.00 0.00 0.00 82 1013.0
20260507081551 63 145 5.0 10.0 0.00 0.00 0.00 82 1012.8
20260507080004 63 175 4.0 10.0 0.00 0.00 0.00 82 1013.0
20260507074517 63 177 3.0 9.0 0.00 0.00 0.00 82 1013.0
20260507073047 63 182 3.0 13.0 0.00 0.00 0.00 82 1013.2
20260507071512 63 179 4.0 11.0 0.00 0.00 0.00 82 1013.0
20260507070140 63 150 5.0 11.0 0.00 0.00 0.00 82 1013.2
20260507064600 64 180 6.0 10.0 0.00 0.00 0.00 82 1013.1
20260507063019 63 174 3.0 8.0 0.00 0.00 0.00 82 1013.0
20260507061546 64 178 5.0 10.0 0.00 0.00 0.00 82 1012.9
20260507060002 64 150 5.0 11.0 0.00 0.00 0.00 82 1013.0
20260507054519 63 169 5.0 11.0 0.00 0.00 0.00 82 1012.3
20260507053033 64 172 5.0 12.0 0.00 0.00 0.00 82 1012.5
20260507051549 64 192 7.0 14.0 0.00 0.00 0.00 82 1012.6
20260507050010 64 161 4.0 13.0 0.00 0.00 0.00 82 1012.8
20260507044537 64 165 4.0 11.0 0.00 0.00 0.00 82 1012.8
20260507043105 64 152 4.0 10.0 0.00 0.00 0.00 83 1012.5
20260507041517 64 184 5.0 9.0 0.00 0.00 0.00 82 1012.1
20260507040037 64 115 5.0 10.0 0.00 0.00 0.00 82 1011.8
20260507034547 64 146 5.0 11.0 0.00 0.00 0.00 82 1011.8
20260507033120 64 106 3.0 10.0 0.00 0.00 0.00 82 1011.8
20260507031511 64 165 3.0 11.0 0.00 0.00 0.00 82 1011.6
20260507030101 64 193 5.0 14.0 0.00 0.00 0.00 82 1011.5
20260507024502 65 152 6.0 13.0 0.00 0.00 0.00 81 1011.2
20260507023020 65 184 4.0 10.0 0.00 0.00 0.00 81 1010.8
20260507021553 65 174 5.0 12.0 0.00 0.00 0.00 81 1010.5
20260507020009 66 154 6.0 13.0 0.00 0.00 0.00 80 1010.5
20260507014523 66 169 5.0 13.0 0.00 0.00 0.00 79 1010.1
20260507013055 67 167 6.0 18.0 0.00 0.00 0.00 78 1009.7
20260507011528 68 223 4.0 12.0 0.00 0.00 0.00 78 1009.9
20260507010042 69 162 5.0 14.0 0.00 0.00 0.00 77 1009.4
20260507004553 70 163 5.0 13.0 0.00 0.00 0.00 77 1009.1
20260507003104 71 174 4.0 15.0 0.00 0.00 0.00 76 1008.9
20260507001515 72 141 6.0 16.0 0.00 0.00 0.00 75 1008.7
20260507000029 73 156 5.0 17.0 0.00 0.00 0.00 75 1008.2
20260506234608 75 184 6.0 17.0 0.00 0.00 0.00 74 1008.2
20260506233020 76 146 6.0 16.0 0.00 0.00 0.00 74 1007.9
20260506231537 77 176 7.0 18.0 0.00 0.00 0.00 73 1007.7
20260506224507 81 156 5.0 11.0 0.00 0.00 0.00 74 1007.3
20260506223026 81 196 5.0 10.0 0.00 0.00 0.00 74 1007.0
20260506221542 82 178 4.0 10.0 0.00 0.00 0.00 75 1006.9
20260506220104 83 194 4.0 10.0 0.00 0.00 0.00 74 1006.9
20260506214522 83 149 5.0 12.0 0.00 0.00 0.00 74 1006.9
20260506213039 84 153 4.0 7.0 0.00 0.00 0.00 73 1006.7
20260506211608 84 137 1.0 5.0 0.00 0.00 0.00 69 1006.8
20260506210034 84 169 2.0 6.0 0.00 0.00 0.00 71 1007.0
20260506204549 84 124 3.0 7.0 0.00 0.00 0.00 69 1007.1
20260506203005 85 140 1.0 3.0 0.00 0.00 0.00 70 1007.3
20260506201520 85 176 2.0 5.0 0.00 0.00 0.00 69 1007.2
20260506200041 84 163 1.0 6.0 0.00 0.00 0.00 72 1007.3
20260506194557 84 160 2.0 6.0 0.00 0.00 0.00 72 1007.4
20260506193013 84 138 3.0 7.0 0.00 0.00 0.00 71 1007.6
20260506191534 83 164 1.0 5.0 0.00 0.00 0.00 75 1007.7
20260506190053 82 177 2.0 8.0 0.00 0.00 0.00 76 1007.9
20260506184506 82 185 1.0 8.0 0.00 0.00 0.00 77 1008.0
20260506183008 82 129 4.0 8.0 0.00 0.00 0.00 75 1008.3
20260506181527 83 158 2.0 5.0 0.00 0.00 0.00 77 1008.3
20260506180046 82 165 3.0 6.0 0.00 0.00 0.00 77 1008.6
20260506174600 81 162 1.0 6.0 0.00 0.00 0.00 81 1008.6
20260506173019 80 148 3.0 6.0 0.00 0.00 0.00 81 1008.8
20260506171529 79 151 3.0 7.0 0.00 0.00 0.00 83 1008.9
20260506170057 79 152 4.0 8.0 0.00 0.00 0.00 83 1008.9
20260506164515 79 185 3.0 7.0 0.00 0.00 0.00 85 1009.0
20260506163036 78 170 2.0 5.0 0.00 0.00 0.00 85 1009.0
20260506161642 78 136 1.0 3.0 0.00 0.00 0.00 85 1009.0
20260506160027 77 153 0.0 2.0 0.00 0.00 0.00 85 1008.7
20260506154550 77 141 0.0 1.0 0.00 0.00 0.00 86 1008.6
20260506153001 76 160 0.0 2.0 0.00 0.00 0.00 86 1008.3
20260506151517 76 152 0.0 2.0 0.00 0.00 0.00 86 1008.2
20260506150036 76 165 1.0 3.0 0.00 0.00 0.00 87 1007.9
20260506144549 76 179 1.0 3.0 0.00 0.00 0.00 87 1007.8
20260506143003 75 181 1.0 3.0 0.00 0.00 0.00 87 1007.7
20260506141520 75 172 3.0 5.0 0.00 0.00 0.00 87 1007.6
20260506140036 74 169 2.0 7.0 0.00 0.00 0.00 87 1007.0
20260506134602 74 179 3.0 9.0 0.00 0.00 0.00 87 1006.9
20260506133028 74 129 2.0 6.0 0.00 0.00 0.00 87 1006.9
20260506131551 73 153 2.0 5.0 0.00 0.00 0.00 87 1006.9
20260506130011 73 129 2.0 4.0 0.00 0.00 0.00 87 1006.9